Date String (YYYY-MM-DD hh:mm:ss) UTC,Instrument flags,Ambient pressure (hPa),Sample flow (lpm),Bypass flow (lpm),Sample temperature (°C),Ambient temperature (°C),ASC tube jacket temperature (°C),LED temperature (°C),Box temperature (°C),Sample RH (%),Span deviation,Mass concentration (μg/m³),Mass concentration (μg/m³),Mass concentration (μg/m³)
DateTimeUTC,F1_M11,P_M11,Q1_M11,Q2_M11,T1_M11,T2_M11,T3_M11,T4_M11,T5_M11,U1_M11,ZSPAN_M11,X0_M11,X2_M11,X1_M11
2023-02-24 07:00:00,,0826.2,5.01,0.00,22.4,21.1,00.0,31.2,23.9,04.3,0000.0,0007.65,0004.59,0004.23
2023-02-24 07:01:00,,0826.1,5.04,0.00,22.5,22.0,00.0,31.2,24.2,04.3,0000.0,0007.78,0004.63,0004.27
2023-02-24 07:02:00,,0826.2,4.99,0.00,22.6,22.9,00.0,31.2,24.4,04.3,0000.0,0007.85,0004.66,0004.30
2023-02-24 07:03:00,,0826.1,5.00,0.00,22.7,23.2,00.0,31.2,24.5,04.3,0000.0,0007.84,0004.68,0004.34
2023-02-24 07:04:00,,0826.1,4.99,0.00,22.7,22.5,00.0,31.3,24.4,04.3,0000.0,0007.96,0004.71,0004.37
2023-02-24 07:05:00,,0826.1,4.98,0.00,22.6,21.9,00.0,31.3,24.2,04.3,0001.3,0008.36,0004.71,0004.39
2023-02-24 07:06:00,,0826.0,4.99,0.00,22.5,21.2,00.0,31.3,24.0,04.3,0001.6,0008.54,0004.70,0004.39
2023-02-24 07:07:00,,0826.1,5.00,0.00,22.5,20.7,00.0,31.3,23.8,04.3,0000.0,0008.58,0004.71,0004.39
2023-02-24 07:08:00,,0826.2,5.01,0.00,22.4,20.4,00.0,31.2,23.7,04.3,0000.0,0008.54,0004.72,0004.41
2023-02-24 07:09:00,,0826.2,5.01,0.00,22.4,21.2,00.0,31.2,23.9,04.3,0000.3,0009.13,0004.75,0004.42
2023-02-24 07:10:00,,0826.2,4.96,0.00,22.5,22.1,00.0,31.2,24.2,04.3,0000.1,0009.14,0004.77,0004.45
2023-02-24 07:11:00,,0826.1,5.02,0.00,22.6,22.8,00.0,31.2,24.4,04.2,0000.0,0009.14,0004.80,0004.47
2023-02-24 07:12:00,,0826.1,5.02,0.00,22.7,23.2,00.0,31.2,24.5,04.2,0000.0,0009.06,0004.81,0004.49
2023-02-24 07:13:00,,0826.1,5.04,0.00,22.7,22.6,00.0,31.3,24.4,04.2,0000.0,0009.06,0004.84,0004.52
2023-02-24 07:14:00,,0826.1,5.00,0.00,22.6,21.9,00.0,31.3,24.2,04.2,0000.0,0009.10,0004.87,0004.54
2023-02-24 07:15:00,,0826.0,4.99,0.00,22.5,21.2,00.0,31.3,23.9,04.2,0000.0,0009.05,0004.88,0004.56
2023-02-24 07:16:00,,0826.1,5.00,0.00,22.4,20.7,00.0,31.3,23.9,04.2,0000.0,0009.41,0004.87,0004.57
2023-02-24 07:17:00,,0826.2,5.01,0.00,22.4,20.4,00.0,31.2,23.8,04.3,0002.1,0009.45,0004.90,0004.59
2023-02-24 07:18:00,,0826.1,5.01,0.00,22.4,21.1,00.0,31.2,23.9,04.3,0002.6,0009.37,0004.89,0004.61
2023-02-24 07:19:00,,0826.2,4.97,0.00,22.5,22.0,00.0,31.2,24.2,04.2,0001.9,0009.36,0004.91,0004.62
2023-02-24 07:20:00,,0826.1,5.00,0.00,22.6,22.7,00.0,31.2,24.4,04.2,0001.1,0008.88,0004.92,0004.62
2023-02-24 07:21:00,,0826.2,4.95,0.00,22.7,23.3,00.0,31.2,24.5,04.2,0000.8,0009.59,0004.94,0004.62
2023-02-24 07:22:00,,0826.2,5.03,0.00,22.7,23.1,00.0,31.3,24.5,04.2,0000.7,0010.27,0004.93,0004.63
2023-02-24 07:23:00,,0826.1,4.97,0.00,22.7,22.4,00.0,31.3,24.3,04.2,-000.1,0010.32,0004.96,0004.64
2023-02-24 07:24:00,,0826.2,4.98,0.00,22.6,21.8,00.0,31.3,24.2,04.3,-000.3,0010.37,0004.97,0004.65
2023-02-24 07:25:00,,0826.2,5.04,0.00,22.6,21.2,00.0,31.3,24.0,04.3,-000.5,0010.49,0004.97,0004.66
2023-02-24 07:26:00,,0826.1,4.98,0.00,22.5,20.7,00.0,31.3,23.8,04.3,0000.0,0010.51,0004.99,0004.68
2023-02-24 07:27:00,,0826.1,5.00,0.00,22.4,20.3,00.0,31.2,23.7,04.3,0000.0,0009.71,0005.01,0004.70
2023-02-24 07:28:00,,0826.2,5.02,0.00,22.4,20.8,00.0,31.2,23.9,04.3,0000.0,0009.67,0005.04,0004.72
2023-02-24 07:29:00,,0826.2,4.98,0.00,22.5,21.9,00.0,31.2,24.1,04.3,-000.4,0010.12,0005.09,0004.75
2023-02-24 07:30:00,,0826.2,5.05,0.00,22.6,22.7,00.0,31.2,24.4,04.3,-000.1,0010.19,0005.13,0004.77
2023-02-24 07:31:00,,0826.2,4.98,0.00,22.7,23.3,00.0,31.2,24.5,04.3,-000.2,0010.20,0005.14,0004.79
2023-02-24 07:32:00,,0826.2,5.01,0.00,22.7,22.9,00.0,31.2,24.4,04.2,0000.0,0009.50,0005.13,0004.81
2023-02-24 07:33:00,,0826.2,5.02,0.00,22.6,22.2,00.0,31.3,24.2,04.3,0000.0,0008.91,0005.19,0004.85
2023-02-24 07:34:00,,0826.2,4.99,0.00,22.6,21.5,00.0,31.3,24.0,04.3,-000.6,0008.96,0005.20,0004.87
2023-02-24 07:35:00,,0826.2,5.01,0.00,22.5,20.9,00.0,31.3,23.8,04.3,-000.4,0009.01,0005.23,0004.88
2023-02-24 07:36:00,,0826.2,5.00,0.00,22.4,20.5,00.0,31.2,23.7,04.3,0000.2,0008.94,0005.25,0004.89
2023-02-24 07:37:00,,0826.2,5.01,0.00,22.4,20.9,00.0,31.2,23.9,04.3,0000.7,0008.89,0005.27,0004.89
2023-02-24 07:38:00,,0826.1,4.99,0.00,22.5,22.0,00.0,31.2,24.2,04.3,0000.3,0008.89,0005.28,0004.90
2023-02-24 07:39:00,,0826.2,4.99,0.00,22.6,22.8,00.0,31.2,24.4,04.3,0000.0,0009.04,0005.27,0004.91
2023-02-24 07:40:00,,0826.2,4.94,0.00,22.7,23.3,00.0,31.2,24.5,04.2,0000.0,0009.28,0005.28,0004.92
2023-02-24 07:41:00,,0826.2,5.01,0.00,22.7,22.8,00.0,31.3,24.4,04.2,0000.0,0009.22,0005.27,0004.93
2023-02-24 07:42:00,,0826.1,5.01,0.00,22.7,22.1,00.0,31.3,24.3,04.2,0000.0,0009.17,0005.26,0004.94
2023-02-24 07:43:00,,0826.0,5.02,0.00,22.6,21.4,00.0,31.3,24.1,04.2,0000.0,0009.20,0005.31,0004.97
2023-02-24 07:44:00,,0826.0,4.97,0.00,22.5,20.9,00.0,31.3,23.8,04.3,0000.0,0009.20,0005.30,0004.98
2023-02-24 07:45:00,,0826.0,5.00,0.00,22.4,20.6,00.0,31.2,23.7,04.3,0000.0,0009.22,0005.33,0005.00
2023-02-24 07:46:00,,0825.9,5.02,0.00,22.4,21.4,00.0,31.2,24.0,04.3,0000.0,0009.33,0005.38,0005.04
2023-02-24 07:47:00,,0825.9,5.01,0.00,22.5,22.4,00.0,31.2,24.2,04.3,0000.0,0009.47,0005.41,0005.07
2023-02-24 07:48:00,,0825.9,5.00,0.00,22.6,23.0,00.0,31.2,24.5,04.3,0000.0,0009.63,0005.47,0005.11
2023-02-24 07:49:00,,0825.9,4.95,0.00,22.7,23.2,00.0,31.2,24.5,04.2,0000.0,0010.01,0005.50,0005.14
2023-02-24 07:50:00,,0825.9,4.99,0.00,22.7,22.5,00.0,31.3,24.3,04.2,0000.2,0010.61,0005.53,0005.15
2023-02-24 07:51:00,,0825.9,5.00,0.00,22.6,21.8,00.0,31.3,24.2,04.2,0001.2,0010.01,0005.55,0005.17
2023-02-24 07:52:00,,0826.0,5.01,0.00,22.5,21.2,00.0,31.3,24.0,04.3,0001.1,0010.14,0005.60,0005.21
2023-02-24 07:53:00,,0826.0,4.98,0.00,22.5,20.7,00.0,31.3,23.9,04.3,0000.9,0010.17,0005.65,0005.24
2023-02-24 07:54:00,,0826.1,4.99,0.00,22.4,20.5,00.0,31.2,23.8,04.3,0000.2,0010.17,0005.66,0005.25
2023-02-24 07:55:00,,0826.2,5.02,0.00,22.4,21.3,00.0,31.2,24.0,04.3,-000.5,0010.06,0005.64,0005.25
2023-02-24 07:56:00,,0826.0,5.04,0.00,22.5,22.3,00.0,31.2,24.3,04.3,-000.0,0010.00,0005.62,0005.25
2023-02-24 07:57:00,,0826.0,5.02,0.00,22.6,23.0,00.0,31.2,24.5,04.3,0000.4,0009.85,0005.58,0005.25
2023-02-24 07:58:00,,0825.9,5.10,0.00,22.7,23.3,00.0,31.2,24.6,04.3,0000.1,0009.69,0005.55,0005.25
2023-02-24 07:59:00,,0825.9,4.99,0.00,22.7,22.6,00.0,31.3,24.4,04.3,0000.1,0009.62,0005.53,0005.25
